GTI517 EDDH-ETSI

Flight info

Callsign GTI517
Flight time 1h 2m
Altitude 23000
Route IDEKO7G IDEKO N850 PIROT/N0473F370 N850 LARBU/N0474F380 DCT WRB DCT BOMBI/N0475F390 T104 XERUM
Aircraft B77L/H-SDE1E2E3FGHIJ2J3J4J5M1RWXY/LB1D1

Departure

Time 2026-05-05 17:31
Airport Hamburg Helmut Schmidt Airport (EDDH)

Arrival

Time 2026-05-05 18:33
Airport Ingolstadt Manching Airport (ETSI)
Time Latitude Longitude Altitude Speed Heading
2026-05-05 17:00 53.62694 9.99213 46 ft 0 kts 63°
2026-05-05 17:18 53.62693 9.99212 46 ft 1 kts 63°
2026-05-05 17:18 53.62687 9.99190 47 ft 2 kts 63°
2026-05-05 17:18 53.62680 9.99167 47 ft 2 kts 72°
2026-05-05 17:18 53.62677 9.99143 48 ft 2 kts 86°
2026-05-05 17:19 53.62677 9.99118 48 ft 2 kts 98°
2026-05-05 17:19 53.62680 9.99094 48 ft 2 kts 110°
2026-05-05 17:19 53.62687 9.99071 48 ft 2 kts 123°
2026-05-05 17:19 53.62696 9.99051 47 ft 2 kts 135°
2026-05-05 17:20 53.62707 9.99035 47 ft 2 kts 147°
2026-05-05 17:20 53.62714 9.99028 47 ft 1 kts 153°
2026-05-05 17:20 53.62716 9.99027 47 ft 0 kts 153°
2026-05-05 17:24 53.62711 9.99030 47 ft 3 kts 152°
2026-05-05 17:25 53.62678 9.99061 48 ft 7 kts 152°
2026-05-05 17:25 53.62643 9.99093 49 ft 9 kts 152°
2026-05-05 17:25 53.62635 9.99100 49 ft 1 kts 152°
2026-05-05 17:25 53.62615 9.99117 50 ft 5 kts 153°
2026-05-05 17:26 53.62577 9.99161 51 ft 8 kts 126°
2026-05-05 17:26 53.62584 9.99290 49 ft 15 kts 78°
2026-05-05 17:26 53.62606 9.99468 47 ft 15 kts 78°
2026-05-05 17:26 53.62624 9.99639 46 ft 13 kts 80°
2026-05-05 17:27 53.62632 9.99709 46 ft 0 kts 79°
2026-05-05 17:28 53.62632 9.99710 46 ft 0 kts 79°
2026-05-05 17:29 53.62637 9.99755 46 ft 7 kts 75°
2026-05-05 17:29 53.62659 9.99858 45 ft 9 kts 70°
2026-05-05 17:29 53.62715 9.99881 43 ft 9 kts 336°
2026-05-05 17:29 53.62725 9.99871 42 ft 0 kts 331°
2026-05-05 17:30 53.62734 9.99863 42 ft 7 kts 331°
2026-05-05 17:30 53.62965 9.99662 36 ft 75 kts 333°
2026-05-05 17:30 53.63652 9.99068 42 ft 143 kts 333°
2026-05-05 17:31 53.64669 9.98188 312 ft 175 kts 336°
2026-05-05 17:31 53.65741 9.97275 1095 ft 176 kts 337°
2026-05-05 17:31 53.66820 9.96367 1743 ft 180 kts 338°
2026-05-05 17:31 53.67988 9.95372 2171 ft 197 kts 337°
2026-05-05 17:32 53.69243 9.94285 2657 ft 213 kts 333°
2026-05-05 17:32 53.70416 9.92615 3142 ft 234 kts 311°
2026-05-05 17:32 53.71167 9.90062 3635 ft 256 kts 285°
2026-05-05 17:32 53.71169 9.86994 4242 ft 272 kts 256°
2026-05-05 17:33 53.70536 9.84041 5132 ft 272 kts 250°
2026-05-05 17:33 53.69867 9.81088 6053 ft 271 kts 251°
2026-05-05 17:33 53.69244 9.78093 6930 ft 272 kts 252°
2026-05-05 17:33 53.68643 9.75096 7743 ft 273 kts 253°
2026-05-05 17:34 53.68049 9.72080 8545 ft 274 kts 253°
2026-05-05 17:34 53.67450 9.69030 9302 ft 276 kts 252°
2026-05-05 17:34 53.66834 9.65909 9815 ft 288 kts 252°
2026-05-05 17:34 53.66125 9.62613 9904 ft 315 kts 244°
2026-05-05 17:35 53.64894 9.59401 9906 ft 340 kts 232°
2026-05-05 17:35 53.63192 9.56503 9902 ft 348 kts 220°
2026-05-05 17:35 53.61073 9.54239 10150 ft 368 kts 207°
2026-05-05 17:35 53.58637 9.52848 10891 ft 374 kts 194°
2026-05-05 17:36 53.55998 9.52432 11731 ft 383 kts 181°
2026-05-05 17:36 53.53352 9.52741 12812 ft 387 kts 177°
2026-05-05 17:36 53.50694 9.53259 13961 ft 389 kts 174°
2026-05-05 17:36 53.47980 9.53866 14933 ft 395 kts 175°
2026-05-05 17:37 53.45273 9.54127 15857 ft 399 kts 184°
2026-05-05 17:37 53.43432 9.53860 16514 ft 401 kts 189°
2026-05-05 17:37 53.39741 9.53062 17788 ft 407 kts 189°
2026-05-05 17:37 53.36942 9.52465 18748 ft 410 kts 189°
2026-05-05 17:38 53.34111 9.51877 19701 ft 414 kts 189°
2026-05-05 17:38 53.31255 9.51295 20581 ft 419 kts 189°
2026-05-05 17:38 53.28369 9.50714 21450 ft 423 kts 189°
2026-05-05 17:38 53.25424 9.50127 22279 ft 428 kts 189°
2026-05-05 17:39 53.22492 9.49547 23121 ft 431 kts 189°
2026-05-05 17:39 53.19521 9.48963 23894 ft 435 kts 189°
2026-05-05 17:39 53.16522 9.48375 24671 ft 439 kts 189°
2026-05-05 17:39 53.13488 9.47782 25462 ft 442 kts 189°
2026-05-05 17:40 53.10439 9.47189 26216 ft 446 kts 189°
2026-05-05 17:40 53.07342 9.46587 26971 ft 450 kts 190°
2026-05-05 17:40 53.04227 9.45983 27693 ft 454 kts 190°
2026-05-05 17:40 53.01124 9.45382 28415 ft 458 kts 190°
2026-05-05 17:41 52.97951 9.44760 29135 ft 462 kts 191°
2026-05-05 17:41 52.94761 9.44078 29982 ft 463 kts 191°
2026-05-05 17:41 52.91597 9.43397 31124 ft 457 kts 191°
2026-05-05 17:41 52.88406 9.42712 32463 ft 447 kts 191°
2026-05-05 17:42 52.85299 9.42047 33722 ft 436 kts 191°
2026-05-05 17:42 52.82324 9.41411 34628 ft 432 kts 191°
2026-05-05 17:42 52.79340 9.40773 35239 ft 431 kts 191°
2026-05-05 17:42 52.76369 9.40139 35645 ft 433 kts 191°
2026-05-05 17:43 52.73389 9.39504 35961 ft 437 kts 191°
2026-05-05 17:43 52.70372 9.38863 36309 ft 439 kts 191°
2026-05-05 17:43 52.67346 9.38222 36635 ft 440 kts 191°
2026-05-05 17:43 52.64343 9.37586 36838 ft 444 kts 191°
2026-05-05 17:44 52.61278 9.36924 36853 ft 442 kts 191°
2026-05-05 17:44 52.55249 9.35332 36859 ft 439 kts 192°
2026-05-05 17:45 52.49237 9.33736 36855 ft 438 kts 191°
2026-05-05 17:45 52.43269 9.32166 36850 ft 439 kts 191°
2026-05-05 17:46 52.37260 9.30595 36845 ft 436 kts 191°
2026-05-05 17:46 52.31292 9.29036 36846 ft 439 kts 191°
2026-05-05 17:47 52.25285 9.27466 36841 ft 437 kts 191°
2026-05-05 17:47 52.19253 9.26121 36843 ft 438 kts 188°
2026-05-05 17:48 52.13197 9.25064 36834 ft 438 kts 188°
2026-05-05 17:48 52.07141 9.23991 36827 ft 437 kts 188°
2026-05-05 17:49 52.01136 9.22674 36828 ft 438 kts 191°
2026-05-05 17:49 51.95153 9.21071 36811 ft 436 kts 191°
2026-05-05 17:50 51.89132 9.19479 36800 ft 436 kts 190°
2026-05-05 17:50 51.83110 9.18090 36798 ft 437 kts 189°
2026-05-05 17:51 51.77146 9.16808 36807 ft 436 kts 188°
2026-05-05 17:51 51.71117 9.15509 36807 ft 436 kts 188°
2026-05-05 17:52 51.65110 9.14215 36803 ft 437 kts 188°
2026-05-05 17:52 51.59109 9.12924 36804 ft 437 kts 188°
2026-05-05 17:53 51.53117 9.11637 36799 ft 435 kts 188°
2026-05-05 17:53 51.47147 9.10341 36804 ft 436 kts 188°
2026-05-05 17:54 51.41156 9.09017 36803 ft 435 kts 188°
2026-05-05 17:54 51.35167 9.07698 36802 ft 436 kts 188°
2026-05-05 17:55 51.29147 9.06376 36805 ft 435 kts 188°
2026-05-05 17:55 51.23170 9.05067 36802 ft 436 kts 188°
2026-05-05 17:56 51.17178 9.03759 36799 ft 435 kts 188°
2026-05-05 17:56 51.11190 9.02456 36799 ft 436 kts 188°
2026-05-05 17:57 51.05172 9.01149 36791 ft 438 kts 187°
2026-05-05 17:57 50.99090 8.99832 36787 ft 437 kts 187°
2026-05-05 17:58 50.93100 8.98537 36775 ft 437 kts 187°
2026-05-05 17:58 50.87088 8.97258 36787 ft 438 kts 185°
2026-05-05 17:59 50.81050 8.97894 36790 ft 437 kts 167°
2026-05-05 17:59 50.75332 9.01056 36796 ft 439 kts 160°
2026-05-05 18:00 50.69629 9.04486 36792 ft 440 kts 160°
2026-05-05 18:00 50.63936 9.07901 36795 ft 440 kts 160°
2026-05-05 18:01 50.58228 9.11316 36786 ft 439 kts 160°
2026-05-05 18:01 50.52501 9.14733 36775 ft 440 kts 160°
2026-05-05 18:02 50.46820 9.18114 36790 ft 441 kts 160°
2026-05-05 18:02 50.41092 9.21515 36795 ft 440 kts 160°
2026-05-05 18:03 50.35386 9.24895 36800 ft 439 kts 160°
2026-05-05 18:03 50.29733 9.28233 36791 ft 438 kts 160°
2026-05-05 18:04 50.23987 9.31618 36798 ft 440 kts 160°
2026-05-05 18:04 50.18308 9.34959 36806 ft 438 kts 160°
2026-05-05 18:05 50.12619 9.38386 36799 ft 438 kts 159°
2026-05-05 18:05 50.06928 9.41810 36338 ft 445 kts 159°
2026-05-05 18:05 50.04061 9.43531 35933 ft 442 kts 159°
2026-05-05 18:06 50.01206 9.45242 35489 ft 439 kts 158°
2026-05-05 18:06 50.00251 9.45813 35339 ft 438 kts 158°
2026-05-05 18:06 49.95572 9.48610 34525 ft 431 kts 158°
2026-05-05 18:06 49.92784 9.50274 33936 ft 432 kts 158°
2026-05-05 18:07 49.89962 9.51956 33347 ft 441 kts 158°
2026-05-05 18:07 49.87095 9.53663 32777 ft 444 kts 158°
2026-05-05 18:07 49.84196 9.55386 32202 ft 445 kts 158°
2026-05-05 18:07 49.81325 9.57090 31646 ft 446 kts 158°
2026-05-05 18:08 49.78424 9.58810 31081 ft 449 kts 158°
2026-05-05 18:08 49.75532 9.60523 30534 ft 453 kts 158°
2026-05-05 18:08 49.72568 9.62275 29954 ft 452 kts 158°
2026-05-05 18:08 49.69685 9.63978 29391 ft 448 kts 158°
2026-05-05 18:09 49.66803 9.65677 28832 ft 443 kts 158°
2026-05-05 18:09 49.63933 9.67380 28268 ft 439 kts 158°
2026-05-05 18:09 49.61089 9.69068 27705 ft 434 kts 159°
2026-05-05 18:09 49.58315 9.70711 27159 ft 430 kts 159°
2026-05-05 18:10 49.55520 9.72365 26604 ft 427 kts 159°
2026-05-05 18:10 49.52752 9.74001 26046 ft 426 kts 159°
2026-05-05 18:10 49.50022 9.75613 25511 ft 424 kts 159°
2026-05-05 18:10 49.47268 9.77236 25008 ft 421 kts 159°
2026-05-05 18:11 49.44543 9.78840 24516 ft 420 kts 159°
2026-05-05 18:11 49.41828 9.80449 24004 ft 419 kts 158°
2026-05-05 18:11 49.39282 9.82466 23504 ft 417 kts 148°
2026-05-05 18:11 49.36982 9.85141 23009 ft 415 kts 139°
2026-05-05 18:12 49.34976 9.88329 22535 ft 413 kts 134°
2026-05-05 18:12 49.33066 9.91611 22020 ft 412 kts 134°
2026-05-05 18:12 49.31166 9.94886 21546 ft 411 kts 134°
2026-05-05 18:12 49.29291 9.98114 21064 ft 410 kts 134°
2026-05-05 18:13 49.27408 10.01352 20601 ft 408 kts 134°
2026-05-05 18:13 49.25518 10.04598 20193 ft 405 kts 134°
2026-05-05 18:13 49.23660 10.07786 19790 ft 403 kts 134°
2026-05-05 18:13 49.21800 10.10971 19442 ft 401 kts 134°
2026-05-05 18:14 49.19942 10.14148 19187 ft 402 kts 134°
2026-05-05 18:14 49.18077 10.17337 18931 ft 402 kts 134°
2026-05-05 18:14 49.16230 10.20493 18573 ft 401 kts 134°
2026-05-05 18:14 49.14387 10.23640 18203 ft 399 kts 134°
2026-05-05 18:15 49.12525 10.26724 17829 ft 395 kts 135°
2026-05-05 18:15 49.10841 10.30055 17424 ft 398 kts 124°
2026-05-05 18:15 49.09592 10.33812 16934 ft 401 kts 114°
2026-05-05 18:15 49.08808 10.37880 16434 ft 403 kts 104°
2026-05-05 18:16 49.08232 10.42063 15938 ft 402 kts 104°
2026-05-05 18:16 49.07669 10.46185 15451 ft 401 kts 104°
2026-05-05 18:16 49.07098 10.50338 14948 ft 399 kts 103°
2026-05-05 18:16 49.06530 10.54451 14459 ft 397 kts 103°
2026-05-05 18:17 49.05964 10.58517 13970 ft 394 kts 104°
2026-05-05 18:17 49.05398 10.62578 13479 ft 393 kts 103°
2026-05-05 18:17 49.04836 10.66637 12987 ft 390 kts 104°
2026-05-05 18:17 49.04283 10.70665 12506 ft 387 kts 104°
2026-05-05 18:18 49.03738 10.74645 12123 ft 382 kts 104°
2026-05-05 18:18 49.03206 10.78573 11754 ft 384 kts 104°
2026-05-05 18:18 49.02667 10.82539 11380 ft 383 kts 104°
2026-05-05 18:18 49.02130 10.86467 11054 ft 375 kts 104°
2026-05-05 18:19 49.01611 10.90318 10803 ft 365 kts 104°
2026-05-05 18:19 49.01109 10.94021 10554 ft 356 kts 104°
2026-05-05 18:19 49.00620 10.97699 10299 ft 348 kts 104°
2026-05-05 18:19 49.00154 11.01235 10029 ft 341 kts 104°
2026-05-05 18:20 48.99699 11.04757 9666 ft 337 kts 104°
2026-05-05 18:20 48.99402 11.07057 9424 ft 335 kts 104°
2026-05-05 18:20 48.98793 11.11670 8932 ft 331 kts 104°
2026-05-05 18:20 48.98340 11.15072 8547 ft 329 kts 104°
2026-05-05 18:21 48.97873 11.18478 8170 ft 327 kts 104°
2026-05-05 18:21 48.97405 11.21831 7789 ft 325 kts 104°
2026-05-05 18:21 48.96928 11.25156 7420 ft 323 kts 104°
2026-05-05 18:21 48.96446 11.28483 7053 ft 321 kts 104°
2026-05-05 18:22 48.95965 11.31755 6664 ft 311 kts 104°
2026-05-05 18:22 48.95502 11.34883 6442 ft 305 kts 104°
2026-05-05 18:22 48.95041 11.38005 6203 ft 300 kts 104°
2026-05-05 18:22 48.94576 11.41075 5965 ft 295 kts 104°
2026-05-05 18:23 48.94114 11.44103 5707 ft 292 kts 104°
2026-05-05 18:23 48.93656 11.47071 5468 ft 291 kts 104°
2026-05-05 18:23 48.93184 11.50046 5227 ft 291 kts 104°
2026-05-05 18:23 48.92704 11.53024 5024 ft 289 kts 104°
2026-05-05 18:24 48.92218 11.56010 4999 ft 291 kts 104°
2026-05-05 18:24 48.91735 11.58956 4990 ft 289 kts 104°
2026-05-05 18:24 48.91243 11.61944 5000 ft 291 kts 104°
2026-05-05 18:24 48.90762 11.64888 4991 ft 290 kts 104°
2026-05-05 18:25 48.90284 11.67813 4976 ft 280 kts 104°
2026-05-05 18:25 48.90127 11.68769 4979 ft 280 kts 104°
2026-05-05 18:25 48.89335 11.73564 4964 ft 281 kts 104°
2026-05-05 18:25 48.88855 11.76457 4744 ft 281 kts 104°
2026-05-05 18:26 48.88379 11.79284 4494 ft 278 kts 104°
2026-05-05 18:26 48.87890 11.82108 4242 ft 276 kts 106°
2026-05-05 18:26 48.87034 11.84664 3999 ft 270 kts 134°
2026-05-05 18:26 48.85552 11.86225 3958 ft 253 kts 166°
2026-05-05 18:27 48.83854 11.86820 3978 ft 250 kts 174°
2026-05-05 18:27 48.82147 11.87275 3978 ft 244 kts 174°
2026-05-05 18:27 48.80533 11.87496 3964 ft 226 kts 191°
2026-05-05 18:27 48.79124 11.86764 3963 ft 206 kts 223°
2026-05-05 18:28 48.78392 11.83274 3980 ft 177 kts 277°
2026-05-05 18:28 48.78236 11.81468 3977 ft 174 kts 256°
2026-05-05 18:28 48.77808 11.79737 3985 ft 176 kts 252°
2026-05-05 18:29 48.77346 11.78026 3992 ft 173 kts 252°
2026-05-05 18:29 48.76908 11.76383 3984 ft 167 kts 252°
2026-05-05 18:29 48.76478 11.74742 3834 ft 169 kts 252°
2026-05-05 18:29 48.76047 11.73103 3621 ft 163 kts 253°
2026-05-05 18:30 48.75637 11.71541 3417 ft 158 kts 253°
2026-05-05 18:30 48.75235 11.70008 3212 ft 155 kts 254°
2026-05-05 18:30 48.74837 11.68484 3012 ft 156 kts 253°
2026-05-05 18:30 48.74442 11.66982 2813 ft 153 kts 253°
2026-05-05 18:31 48.74049 11.65489 2615 ft 149 kts 253°
2026-05-05 18:31 48.73667 11.64031 2420 ft 150 kts 253°
2026-05-05 18:31 48.73285 11.62581 2222 ft 149 kts 252°
2026-05-05 18:31 48.72897 11.61112 2017 ft 150 kts 252°
2026-05-05 18:32 48.72512 11.59649 1811 ft 150 kts 252°
2026-05-05 18:32 48.72126 11.58183 1605 ft 150 kts 252°
2026-05-05 18:32 48.71748 11.56698 1395 ft 151 kts 251°
2026-05-05 18:32 48.71349 11.55235 1215 ft 150 kts 250°
2026-05-05 18:33 48.71012 11.53956 1210 ft 106 kts 250°
2026-05-05 18:33 48.70801 11.53184 1213 ft 53 kts 250°
2026-05-05 18:33 48.70718 11.52847 1213 ft 27 kts 250°
2026-05-05 18:33 48.70650 11.52595 1215 ft 14 kts 250°
2026-05-05 18:34 48.70657 11.52513 1216 ft 7 kts 317°
2026-05-05 18:34 48.70712 11.52479 1216 ft 9 kts 338°
2026-05-05 18:34 48.70785 11.52435 1215 ft 12 kts 339°
2026-05-05 18:34 48.70860 11.52438 1213 ft 11 kts 56°
2026-05-05 18:35 48.70838 11.52540 1213 ft 9 kts 101°